Home > Weather > Ibagué > Past weeks

Flag for Colombia Past Weather in Ibagué, Colombia — Yesterday and Last 2 Weeks

Now
82 °F

Scattered showers. Scattered clouds.


Feels Like: 85 °F
Forecast: 52 / 75 °F
Wind: 2 mph from North

Location: Pereira / Matecana

Current Time: Aug 26, 2016 at 1:45:21 PM

Latest Report: Aug 26, 2016 at 1:00 PM


Visibility: N/A

Pressure: 30.04 "Hg (25.98 "Hg at 1281m altitude)

Humidity: 58%

Dew Point: 66 °F

Location of IbaguéLocation

Past Weather in Ibagué — Graph

°F

Ibagué Temperature Yesterday

Maximum temperature yesterday: 84 °F (at 3:00 PM)
Minimum temperature yesterday: 66 °F (at 6:00 AM)
Average temperature yesterday: 75 °F

High & Low Weather Summary for the Past Weeks

 TemperatureHumidityPressure
High90 °F (Aug 23, 3:00 PM)94% (Aug 11, 9:00 PM)30.14 "Hg (Aug 11, 9:00 PM)
Low64 °F (Aug 19, 5:00 AM)29% (Aug 21, 4:00 PM)29.88 "Hg (Aug 21, 4:00 PM)
Average75 °F69%30.02 "Hg
* Reported Aug 11 12:00 PM — Aug 26 12:00 PM, Ibagué, Weather by CustomWeather, © 2016

Note: Actual official high and low records may vary slightly from our data, if they occured in-between our weather recording intervals... More about our weather records

Advertising

Ibagué Weather History for the Previous 24 Hours

Scroll right to see more
 ConditionsComfort  
Time TempWeatherWind HumidityBarometerVisibility
12:00 PM
Fri, Aug 26
79 °FScattered showers. Scattered clouds.5 mph65%30.07 "HgN/A
11:00 AM77 °FScattered clouds.7 mph69%30.10 "HgN/A
10:00 AM77 °FScattered clouds.2 mph69%30.13 "HgN/A
9:00 AM72 °FPassing clouds.2 mph78%30.14 "HgN/A
8:00 AM70 °FScattered clouds.3 mph83%30.12 "HgN/A
7:00 AM68 °FScattered clouds.5 mph88%30.09 "HgN/A
6:00 AM66 °FScattered clouds.2 mph94%30.08 "HgN/A
5:00 AM66 °FPassing clouds.2 mph94%30.07 "HgN/A
12:00 AM68 °FPassing clouds.2 mph94%30.07 "Hg5 mi
11:00 PM
Thu, Aug 25
68 °FPassing clouds.2 mph94%30.08 "Hg5 mi
10:00 PM68 °FPassing clouds.2 mph94%30.07 "HgN/A
9:00 PM68 °FPassing clouds.3 mph94%30.07 "Hg6 mi
8:00 PM68 °FRain. Partly cloudy.7 mph94%30.03 "Hg4 mi
7:00 PM73 °FPassing clouds.5 mph69%30.00 "HgN/A
6:00 PM73 °FScattered showers. Scattered clouds.6 mph69%29.96 "HgN/A
5:00 PM82 °FPassing clouds.2 mph48%29.92 "HgN/A
4:00 PM84 °FScattered clouds.9 mph51%29.93 "HgN/A
3:00 PM84 °FScattered clouds.2 mph45%29.94 "HgN/A
2:00 PM82 °FScattered clouds.7 mph48%29.96 "HgN/A
1:00 PM82 °FScattered clouds.3 mph55%30.00 "HgN/A
Weather by CustomWeather, © 2016

See weather overviewHow to use our weather pages